C/2006 M2 ( Spacewatch )

Japanese version
Home page
Updated on July 16, 2006

---------------------------------------------------------------------

* Profile

Discovery Date June 19, 2006
Magnitude 21.2 mag
Discoverer Spacewatch survey

* Orbital Elements

T 2005 Nov. 20.441 TT                                   MPC
q   5.20585              (2000.0)            P               Q
                   Peri.  115.255       -0.022181       -0.973973
                   Node    27.083       -0.998205       +0.009021
e   1.0            Incl.  150.300       +0.055631       -0.226485
From 38 observations 2006 June 19-22.

* Magnitudes Graph

        m1 = 10.0 + 5 log d + 10.0 log r

---------------------------------------------------------------------

The orbital elements are published on M.P.E.C. 2006-M27.
The magnitudes graphs are made with Comet for Windows.

---------------------------------------------------------------------

Copyright(C) Seiichi Yoshida (comet@aerith.net). All rights reserved.